sat.trackr.live / text

‹ back to catalog

ONEWEB-0186

NORAD 48229 · 2021-031V

PAYLOAD ACTIVE UNKNOWN

§ Identity

Operator
Country
UK
Launch date
2021-04-25
Launch site
VOSTO
Launch vehicle
Mass (kg)
RCS (m²)

Purposes: comms

External: N2YO · Heavens-Above · Gunter

§ Orbital elements

Epoch: 2026-09-19T23:02:01.843584Z

Period
109.55 min
Inclination
87.8902°
Eccentricity
0.0001811
Mean motion
13.14501378 rev/d
Perigee alt
1,204.4 km
Apogee alt
1,207.2 km
Semi-major
7,583.9 km
B*
3.0038e-5
RAAN
270.8013°
Arg perigee
89.0237°
Mean anomaly
271.1100°
Rev number
26,083

§ Raw data

ONEWEB-01861 48229U 21031V   26262.95974356  .00000024  00000+0  30038-4 0  99912 48229  87.8902 270.8013 0001811  89.0237 271.1100 13.14501378260836

JSON: /api/v1/satellites/48229 · /tle

For live sub-satellite position, see the globe view (requires WebGL).

§ Visibility from observer

Set your observer location to see the next 7 days of passes ≥ 10°. The values pass through the URL so the page stays shareable.

No JS? Fill the form by hand. The geolocation button needs JavaScript.